Tracking 20092 objects as of 14-Dec-2019
HD Live streaming from Space Station
objects crossing your sky now

MIDAS 3

Track MIDAS 3 now!
10-day predictions
MIDAS 3 is classified as:


NORAD ID: 163
Int'l Code: 1961-018A
Perigee: 3,351.3 km
Apogee: 3,551.2 km
Inclination: 91.2 °
Period: 161.5 minutes
Semi major axis: 9822 km
RCS: 10.0428 m2 (large)
Launch date: July 12, 1961
Source: United States (US)
Launch site: AIR FORCE WESTERN TEST RANGE (AFWTR)
aabbcc
Your satellite tracking list
Your tracking list is empty




NASA's NSSDC Master Catalog

Two Line Element Set (TLE):
1   163U 61018A   19347.60274440 -.00000010  00000-0 -38000-2 0  9993
2   163  91.2074 100.9976 0101754 244.3879 114.6451  8.91835454902305
Source of the keplerian elements: AFSPC